• en Belgique
  • Liste des pays
  • À 7 jours
  • Température de l'eau
  • Carte satellitaire
  • Carte météo
  • Widgets météo
  • user-avatar
    Se connecter

    Météo par heure à Adélaïde

    Ce jour, 17 Octobre, Mardi

    Heure Température Précipitation Vent Pression Humidité
    00:00 +22°C° 0 mm 4 m/s 758 mmHg 39%
    01:00 +22°C° 0 mm 4 m/s 758 mmHg 41%
    02:00 +21°C° 0 mm 4 m/s 758 mmHg 42%
    03:00 +21°C° 0 mm 4 m/s 757 mmHg 41%
    04:00 +21°C° 0 mm 5 m/s 758 mmHg 42%
    05:00 +22°C° 0 mm 5 m/s 758 mmHg 42%
    06:00 +22°C° 0 mm 5 m/s 758 mmHg 43%
    07:00 +24°C° 0 mm 6 m/s 758 mmHg 38%
    08:00 +28°C° 0 mm 6 m/s 759 mmHg 34%
    09:00 +32°C° 0 mm 7 m/s 759 mmHg 26%
    10:00 +32°C° 0 mm 7 m/s 758 mmHg 24%
    11:00 +33°C° 0 mm 6 m/s 758 mmHg 23%
    12:00 +34°C° 0 mm 6 m/s 758 mmHg 22%
    13:00 +34°C° 0 mm 5 m/s 757 mmHg 23%
    14:00 +34°C° 0 mm 5 m/s 757 mmHg 23%
    15:00 +34°C° 0 mm 4 m/s 756 mmHg 24%
    16:00 +31°C° 0 mm 3 m/s 756 mmHg 28%
    17:00 +30°C° 0 mm 2 m/s 757 mmHg 32%
    18:00 +28°C° 0 mm 2 m/s 757 mmHg 36%
    19:00 +27°C° 0 mm 3 m/s 757 mmHg 37%
    20:00 +27°C° 0 mm 4 m/s 757 mmHg 38%
    21:00 +26°C° 0 mm 4 m/s 757 mmHg 39%
    22:00 +26°C° 0 mm 5 m/s 757 mmHg 41%
    23:00 +25°C° 0 mm 5 m/s 757 mmHg 42%

    Demain, 18 Octobre, Mercredi

    Heure Température Précipitation Vent Pression Humidité
    00:00 +25°C° 0 mm 5 m/s 758 mmHg 43%
    01:00 +25°C° 0 mm 5 m/s 757 mmHg 44%
    02:00 +25°C° 0 mm 5 m/s 757 mmHg 45%
    03:00 +25°C° 0 mm 5 m/s 757 mmHg 45%
    04:00 +25°C° 0 mm 5 m/s 757 mmHg 46%
    05:00 +25°C° 0 mm 5 m/s 757 mmHg 47%
    06:00 +24°C° 0 mm 6 m/s 757 mmHg 49%
    07:00 +27°C° 0 mm 6 m/s 758 mmHg 44%
    08:00 +29°C° 0 mm 7 m/s 758 mmHg 40%
    09:00 +32°C° 0 mm 7 m/s 758 mmHg 36%
    10:00 +32°C° 0 mm 7 m/s 757 mmHg 34%
    11:00 +33°C° 0 mm 6 m/s 757 mmHg 31%
    12:00 +34°C° 0 mm 6 m/s 757 mmHg 29%
    13:00 +34°C° 0 mm 6 m/s 756 mmHg 30%
    14:00 +34°C° 0 mm 5 m/s 756 mmHg 31%
    15:00 +34°C° 0 mm 4 m/s 755 mmHg 32%
    16:00 +32°C° 0,1 mm 4 m/s 755 mmHg 39%
    17:00 +29°C° 0,1 mm 3 m/s 756 mmHg 45%
    18:00 +27°C° 0,1 mm 2 m/s 756 mmHg 51%
    19:00 +26°C° 0,2 mm 3 m/s 756 mmHg 57%
    20:00 +23°C° 0,2 mm 4 m/s 757 mmHg 63%
    21:00 +22°C° 0,2 mm 4 m/s 757 mmHg 69%
    22:00 +21°C° 0,5 mm 3 m/s 757 mmHg 73%
    23:00 +21°C° 0,5 mm 3 m/s 757 mmHg 78%

    Après-demain, 19 Octobre, Jeudi

    Heure Température Précipitation Vent Pression Humidité
    00:00 +20°C° 0,5 mm 2 m/s 757 mmHg 82%
    01:00 +20°C° 0,3 mm 2 m/s 757 mmHg 84%
    02:00 +20°C° 0,3 mm 2 m/s 757 mmHg 85%
    03:00 +20°C° 0,3 mm 3 m/s 758 mmHg 87%
    04:00 +19°C° 0,1 mm 3 m/s 758 mmHg 88%
    05:00 +19°C° 0,1 mm 4 m/s 759 mmHg 90%
    06:00 +19°C° 0,1 mm 4 m/s 760 mmHg 91%
    07:00 +19°C° 0,1 mm 5 m/s 761 mmHg 86%
    08:00 +19°C° 0,1 mm 5 m/s 761 mmHg 81%
    09:00 +19°C° 0,1 mm 5 m/s 762 mmHg 76%
    10:00 +20°C° 0 mm 6 m/s 762 mmHg 67%
    11:00 +21°C° 0 mm 6 m/s 762 mmHg 59%
    12:00 +22°C° 0 mm 6 m/s 763 mmHg 50%
    13:00 +22°C° 0 mm 6 m/s 763 mmHg 49%
    14:00 +21°C° 0 mm 6 m/s 763 mmHg 47%
    15:00 +21°C° 0 mm 6 m/s 763 mmHg 46%
    16:00 +19°C° 0 mm 6 m/s 764 mmHg 52%
    17:00 +17°C° 0 mm 5 m/s 764 mmHg 57%
    18:00 +15°C° 0 mm 5 m/s 765 mmHg 62%
    19:00 +14°C° 0 mm 5 m/s 766 mmHg 67%
    20:00 +13°C° 0 mm 5 m/s 766 mmHg 71%
    21:00 +12°C° 0 mm 5 m/s 767 mmHg 76%
    22:00 +12°C° 0 mm 4 m/s 767 mmHg 77%
    23:00 +12°C° 0 mm 4 m/s 767 mmHg 79%

    20 Octobre, Vendredi

    Heure Température Précipitation Vent Pression Humidité
    00:00 +12°C° 0 mm 4 m/s 767 mmHg 80%
    01:00 +12°C° 0 mm 5 m/s 767 mmHg 80%
    02:00 +12°C° 0 mm 5 m/s 767 mmHg 79%
    03:00 +10°C° 0 mm 5 m/s 767 mmHg 78%
    04:00 +12°C° 0 mm 5 m/s 767 mmHg 76%
    05:00 +12°C° 0 mm 4 m/s 768 mmHg 73%
    06:00 +12°C° 0 mm 4 m/s 768 mmHg 71%
    07:00 +13°C° 0 mm 4 m/s 769 mmHg 64%
    08:00 +15°C° 0 mm 5 m/s 769 mmHg 58%
    09:00 +16°C° 0 mm 5 m/s 769 mmHg 51%
    10:00 +17°C° 0 mm 5 m/s 769 mmHg 49%
    11:00 +19°C° 0 mm 6 m/s 768 mmHg 46%
    12:00 +20°C° 0 mm 6 m/s 768 mmHg 44%
    13:00 +19°C° 0 mm 6 m/s 768 mmHg 45%
    14:00 +18°C° 0 mm 7 m/s 767 mmHg 47%
    15:00 +18°C° 0 mm 7 m/s 767 mmHg 49%
    16:00 +16°C° 0 mm 7 m/s 767 mmHg 54%
    17:00 +15°C° 0 mm 7 m/s 768 mmHg 60%
    18:00 +13°C° 0 mm 6 m/s 768 mmHg 66%
    19:00 +11°C° 0 mm 6 m/s 768 mmHg 71%
    20:00 +11°C° 0 mm 6 m/s 769 mmHg 76%
    21:00 +10°C° 0 mm 5 m/s 769 mmHg 81%
    22:00 +10°C° 0 mm 5 m/s 769 mmHg 83%
    23:00 +9°C° 0 mm 5 m/s 769 mmHg 85%

    21 Octobre, Samedi

    Heure Température Précipitation Vent Pression Humidité
    00:00 +10°C° 0 mm 4 m/s 768 mmHg 86%
    01:00 +10°C° 0 mm 4 m/s 768 mmHg 87%
    02:00 +10°C° 0 mm 4 m/s 768 mmHg 87%
    03:00 +10°C° 0 mm 4 m/s 768 mmHg 88%
    04:00 +10°C° 0 mm 4 m/s 768 mmHg 86%
    05:00 +10°C° 0 mm 4 m/s 768 mmHg 84%
    06:00 +11°C° 0 mm 4 m/s 768 mmHg 83%
    07:00 +12°C° 0 mm 4 m/s 768 mmHg 74%
    08:00 +14°C° 0 mm 4 m/s 768 mmHg 65%
    09:00 +17°C° 0 mm 4 m/s 768 mmHg 56%
    10:00 +17°C° 0 mm 5 m/s 768 mmHg 53%
    11:00 +19°C° 0 mm 5 m/s 767 mmHg 51%
    12:00 +20°C° 0 mm 6 m/s 767 mmHg 48%
    13:00 +19°C° 0 mm 6 m/s 766 mmHg 49%
    14:00 +19°C° 0 mm 6 m/s 766 mmHg 50%
    15:00 +18°C° 0 mm 7 m/s 765 mmHg 51%
    16:00 +16°C° 0 mm 6 m/s 765 mmHg 57%
    17:00 +15°C° 0 mm 6 m/s 765 mmHg 64%
    18:00 +13°C° 0 mm 6 m/s 765 mmHg 70%
    19:00 +12°C° 0 mm 5 m/s 765 mmHg 74%
    20:00 +12°C° 0 mm 5 m/s 765 mmHg 77%
    21:00 +11°C° 0 mm 4 m/s 766 mmHg 81%
    22:00 +11°C° 0 mm 4 m/s 765 mmHg 82%
    23:00 +10°C° 0 mm 4 m/s 765 mmHg 82%

    22 Octobre, Dimanche

    Heure Température Précipitation Vent Pression Humidité
    00:00 +10°C° 0 mm 3 m/s 764 mmHg 83%
    01:00 +10°C° 0 mm 3 m/s 764 mmHg 83%
    02:00 +10°C° 0 mm 3 m/s 764 mmHg 83%
    03:00 +10°C° 0 mm 3 m/s 763 mmHg 83%
    04:00 +11°C° 0 mm 3 m/s 764 mmHg 81%
    05:00 +11°C° 0 mm 3 m/s 764 mmHg 79%
    06:00 +11°C° 0 mm 3 m/s 764 mmHg 77%
    07:00 +13°C° 0 mm 3 m/s 764 mmHg 70%
    08:00 +14°C° 0 mm 4 m/s 764 mmHg 63%
    09:00 +17°C° 0 mm 4 m/s 764 mmHg 56%
    10:00 +18°C° 0 mm 4 m/s 763 mmHg 53%
    11:00 +19°C° 0 mm 4 m/s 763 mmHg 50%
    12:00 +20°C° 0 mm 5 m/s 762 mmHg 46%
    13:00 +19°C° 0 mm 5 m/s 762 mmHg 49%
    14:00 +19°C° 0 mm 6 m/s 762 mmHg 51%
    15:00 +19°C° 0 mm 6 m/s 761 mmHg 53%
    16:00 +16°C° 0 mm 6 m/s 761 mmHg 59%
    17:00 +15°C° 0 mm 5 m/s 762 mmHg 65%
    18:00 +14°C° 0 mm 5 m/s 762 mmHg 71%
    19:00 +13°C° 0 mm 4 m/s 762 mmHg 76%
    20:00 +12°C° 0 mm 4 m/s 762 mmHg 81%
    21:00 +11°C° 0 mm 3 m/s 762 mmHg 86%
    22:00 +11°C° 0 mm 3 m/s 762 mmHg 87%
    23:00 +12°C° 0 mm 2 m/s 762 mmHg 88%
    Voir plus